Regional Weather Roundup
Issued by NWS

Home | Current Version | Previous Version | Graphics & Text | Print | Product List | Glossary On
Versions: 1 2 3 4 5 6 7 8 9 10 11 12 13 14 15 16 17 18 19 20 21 22 23 24 25 26 27 28 29 30 31 32 33 34 35 36 37 38 39 40 41 42 43 44 45 46 47 48 49 50
000
ASUS45 KCYS 261910
RWRWY

WYOMING REGIONAL WEATHER ROUNDUP
NATIONAL WEATHER SERVICE CHEYENNE WY
100 PM MDT SUN APR 26 2015

NOTE:  "FAIR" INDICATES FEW OR NO CLOUDS BELOW 12,000 FEET
WITH NO SIGNIFICANT WEATHER AND/OR OBSTRUCTIONS TO VISIBILITY.

WYZ001-262000-
YELLOWSTONE NATIONAL PARK

CITY           SKY/WX    TMP DP  RH WIND       PRES   REMARKS
LK YELLOWSTONE   N/A     39  29  67 CALM      29.97R
W YELLOWSTONE  NOT AVBL

$$
WYZ002>013-054>058-071-098>099-262000-
NORTHERN WYOMING

CITY           SKY/WX    TMP DP  RH WIND       PRES   REMARKS
JACKSON        CLOUDY    39  37  93 S7        29.93R WCI  34
CODY           CLOUDY    39  36  87 N20       30.01S WCI  30
GREYBULL       LGT RAIN  44  42  93 NW8       29.99R
WORLAND        CLOUDY    42  38  85 NW10      29.99R
SHERIDAN       LGT RAIN  39  36  89 NW6       30.06R WCI  35
BUFFALO        LGT SNOW  34  32  92 NW12      30.03S VSB 3/4 WCI  25
GILLETTE       LGT RAIN  42  40  92 N12       29.99R
HULETT         LGT RAIN  43  41  93 NE12      30.00S
NEWCASTLE      LGT RAIN  45  45 100 SE9       29.98R

$$
WYZ014>020-022>026-101>103-262000-
CENTRAL WYOMING

CITY           SKY/WX    TMP DP  RH WIND       PRES   REMARKS
BIG PINEY      LGT RAIN  39  36  89 NW13      29.91R WCI  31
PINEDALE       CLOUDY    43  37  81 W13       29.89R
DUBOIS         CLOUDY    37  32  81 SE12      29.94R WCI  30
LANDER         LGT RAIN  40  36  86 N6        29.95R
RIVERTON       LGT RAIN  40  36  86 N14       29.96R WCI  32
CASPER         CLOUDY    40  35  83 N20       29.94S WCI  30
DOUGLAS        CLOUDY    45  45 100 VRB3      29.93R

$$
WYZ021-027>030-104>119-262000-
SOUTHERN WYOMING

CITY           SKY/WX    TMP DP  RH WIND       PRES   REMARKS
EVANSTON       CLOUDY    34  30  85 W6        29.96R WCI  29
KEMMERER       CLOUDY    41  34  75 W17G24    29.92R
FORT BRIDGER   CLOUDY    41  36  81 W18       29.95S
ROCK SPRINGS   LGT RAIN  40  38  93 NE13      29.89R WCI  32
DIXON          MOCLDY    53  35  49 NE22      29.82R
RAWLINS        FAIR      53  38  56 NE21G29   29.84S
SARATOGA       LGT RAIN  43  36  75 MISG      29.84R
LARAMIE        CLOUDY    45  36  70 SE18      29.87S
CHEYENNE       CLOUDY    43  39  86 E13       29.90F
TORRINGTON     LGT RAIN  45  44  97 E16G23    29.93S FOG
PINE BLUFFS    DRIZZLE   43  41  93 E12       29.92F

$$



USA.gov is the U.S. government's official web portal to all federal, state and local government web resources and services.